Location: Dessau
(51.7984°N, 12.2168°E)
Time: 06:02:49
(UTC+01:00)

ISS - Pass Details

Date: 10 January 2018
Orbit: 401 x 406 km, 51.6° (Epoch: 17 January)

Event Time Altitude Azimuth Distance (km) Brightness Sun altitude
Exits shadow 05:00:03 16° 95° (E) 1,154 -0.7 -29.1°
Drops below altitude 10° 05:00:49 10° 95° (E) 1,466 -0.1 -29.0°
Sets 05:02:54 0° 95° (E) 2,327 1.3 -28.7°
